Precipitable_Water
0.69 0.73 0.72 0.71 0.69 0.65 0.65 0.63 0.58 0.63 0.66 0.67 0.61 0.59 0.61 0.62 0.61 0.51 0.33 0.51 0.61 0.66 0.70 0.59 0.51 0.53 0.50 0.43 0.46 0.51 0.33 0.27 0.29 0.30 0.27 0.34 0.30 0.34 0.36 0.34 0.35 0.38 0.37 0.38 0.41
0.61 0.67 0.67 0.65 0.63 0.61 0.61 0.57 0.62 0.63 0.64 0.63 0.62 0.63 0.65 0.66 0.52 0.38 0.49 0.56 0.60 0.63 0.55 0.45 0.43 0.46 0.40 0.41 0.43 0.40 0.31 0.28 0.34 0.33 0.28 0.32 0.33 0.33 0.31 0.30 0.31 0.32 0.36 0.37 0.38
0.58 0.62 0.64 0.64 0.60 0.58 0.57 0.61 0.62 0.64 0.65 0.64 0.62 0.64 0.67 0.67 0.40 0.37 0.53 0.54 0.53 0.54 0.51 0.50 0.48 0.47 0.38 0.37 0.36 0.35 0.26 0.32 0.33 0.33 0.34 0.32 0.31 0.34 0.31 0.27 0.30 0.28 0.31 0.33 0.34
0.59 0.59 0.62 0.60 0.56 0.56 0.61 0.62 0.64 0.64 0.65 0.65 0.64 0.66 0.65 0.61 0.24 0.43 0.53 0.52 0.53 0.51 0.45 0.39 0.41 0.38 0.30 0.28 0.34 0.27 0.32 0.32 0.32 0.34 0.32 0.29 0.31 0.29 0.30 0.29 0.31 0.31 0.32 0.32 0.32
0.60 0.58 0.62 0.58 0.57 0.61 0.64 0.66 0.68 0.68 0.65 0.64 0.65 0.64 0.55 0.35 0.35 0.49 0.52 0.52 0.51 0.47 0.43 0.42 0.38 0.34 0.27 0.30 0.31 0.28 0.31 0.33 0.33 0.32 0.30 0.30 0.27 0.27 0.27 0.29 0.31 0.32 0.32 0.31 0.33
0.60 0.59 0.63 0.59 0.63 0.68 0.69 0.69 0.67 0.65 0.62 0.62 0.63 0.66 0.48 0.28 0.49 0.54 0.52 0.48 0.46 0.45 0.43 0.43 0.38 0.38 0.32 0.31 0.30 0.32 0.30 0.29 0.30 0.29 0.29 0.26 0.25 0.27 0.25 0.28 0.28 0.29 0.30 0.32 0.32
0.62 0.61 0.63 0.60 0.67 0.69 0.68 0.66 0.65 0.61 0.59 0.60 0.64 0.59 0.40 0.35 0.51 0.53 0.51 0.46 0.44 0.45 0.38 0.43 0.43 0.37 0.33 0.29 0.34 0.31 0.26 0.28 0.29 0.29 0.26 0.27 0.20 0.21 0.25 0.27 0.26 0.27 0.29 0.31 0.33
0.63 0.64 0.65 0.63 0.68 0.69 0.67 0.63 0.61 0.58 0.57 0.59 0.62 0.52 0.33 0.50 0.52 0.48 0.50 0.42 0.40 0.42 0.42 0.44 0.44 0.38 0.34 0.34 0.31 0.28 0.32 0.23 0.29 0.28 0.27 0.27 0.17 0.23 0.26 0.26 0.26 0.27 0.29 0.30 0.32
0.62 0.68 0.68 0.66 0.69 0.69 0.63 0.63 0.61 0.55 0.52 0.55 0.49 0.42 0.30 0.48 0.39 0.44 0.46 0.39 0.37 0.35 0.42 0.44 0.40 0.33 0.33 0.29 0.28 0.30 0.21 0.26 0.23 0.28 0.27 0.25 0.20 0.24 0.26 0.27 0.26 0.28 0.29 0.30 0.32
0.65 0.68 0.69 0.69 0.67 0.63 0.62 0.62 0.58 0.52 0.52 0.47 0.41 0.32 0.36 0.31 0.39 0.41 0.45 0.41 0.34 0.33 0.31 0.34 0.35 0.30 0.30 0.26 0.19 0.21 0.18 0.21 0.20 0.23 0.23 0.23 0.21 0.25 0.27 0.26 0.27 0.28 0.29 0.31 0.32
0.67 0.66 0.67 0.65 0.64 0.65 0.58 0.52 0.40 0.32 0.35 0.30 0.32 0.31 0.32 0.36 0.40 0.36 0.41 0.38 0.36 0.30 0.23 0.29 0.25 0.20 0.19 0.21 0.21 0.18 0.16 0.16 0.21 0.24 0.21 0.21 0.22 0.23 0.26 0.27 0.27 0.28 0.30 0.31 0.33
0.64 0.68 0.66 0.68 0.67 0.65 0.65 0.49 0.46 0.44 0.30 0.38 0.35 0.34 0.37 0.38 0.30 0.32 0.41 0.31 0.29 0.22 0.25 0.23 0.17 0.20 0.22 0.21 0.18 0.17 0.15 0.17 0.20 0.23 0.22 0.21 0.21 0.24 0.27 0.28 0.29 0.30 0.31 0.32 0.33
0.68 0.69 0.70 0.68 0.67 0.63 0.55 0.48 0.63 0.56 0.33 0.34 0.36 0.34 0.35 0.37 0.30 0.30 0.35 0.32 0.26 0.23 0.23 0.21 0.20 0.22 0.20 0.17 0.15 0.18 0.17 0.16 0.16 0.22 0.24 0.24 0.21 0.23 0.28 0.30 0.31 0.32 0.32 0.32 0.32
0.71 0.71 0.68 0.67 0.57 0.53 0.47 0.61 0.65 0.61 0.29 0.28 0.30 0.32 0.36 0.36 0.28 0.38 0.38 0.33 0.28 0.23 0.24 0.21 0.24 0.22 0.20 0.18 0.18 0.17 0.23 0.19 0.20 0.20 0.17 0.25 0.16 0.23 0.27 0.27 0.29 0.30 0.31 0.31 0.31
0.71 0.70 0.68 0.71 0.57 0.52 0.57 0.69 0.64 0.54 0.20 0.31 0.32 0.42 0.38 0.31 0.33 0.33 0.39 0.34 0.25 0.25 0.29 0.26 0.24 0.22 0.18 0.19 0.21 0.18 0.23 0.23 0.24 0.22 0.22 0.23 0.21 0.22 0.27 0.25 0.28 0.30 0.30 0.30 0.30
0.70 0.70 0.68 0.68 0.65 0.66 0.71 0.68 0.52 0.32 0.20 0.29 0.35 0.32 0.31 0.33 0.32 0.35 0.34 0.36 0.35 0.30 0.30 0.28 0.32 0.27 0.22 0.25 0.24 0.25 0.25 0.24 0.25 0.25 0.18 0.23 0.21 0.20 0.24 0.27 0.28 0.30 0.30 0.30 0.29
0.70 0.70 0.67 0.74 0.61 0.71 0.68 0.52 0.34 0.26 0.32 0.28 0.30 0.33 0.31 0.30 0.32 0.33 0.31 0.28 0.26 0.27 0.26 0.29 0.29 0.29 0.26 0.23 0.28 0.25 0.22 0.17 0.16 0.18 0.16 0.23 0.20 0.22 0.27 0.30 0.30 0.29 0.29 0.29 0.28
0.71 0.71 0.71 0.71 0.73 0.68 0.54 0.44 0.27 0.29 0.30 0.35 0.34 0.34 0.30 0.34 0.32 0.33 0.33 0.28 0.31 0.30 0.27 0.22 0.20 0.24 0.27 0.24 0.21 0.25 0.24 0.18 0.14 0.15 0.16 0.22 0.18 0.23 0.30 0.31 0.31 0.31 0.30 0.29 0.26
0.71 0.68 0.66 0.68 0.70 0.60 0.46 0.32 0.29 0.31 0.34 0.33 0.33 0.32 0.32 0.34 0.34 0.33 0.30 0.30 0.32 0.32 0.25 0.20 0.22 0.28 0.29 0.28 0.26 0.25 0.23 0.25 0.20 0.21 0.18 0.20 0.25 0.28 0.31 0.30 0.30 0.29 0.29 0.27 0.25
0.64 0.60 0.58 0.69 0.68 0.56 0.45 0.31 0.33 0.38 0.38 0.38 0.31 0.35 0.29 0.29 0.31 0.31 0.31 0.35 0.33 0.35 0.34 0.27 0.20 0.28 0.29 0.31 0.31 0.28 0.28 0.22 0.22 0.17 0.16 0.21 0.21 0.23 0.27 0.28 0.29 0.29 0.27 0.25 0.26
0.60 0.51 0.61 0.69 0.64 0.51 0.37 0.34 0.36 0.42 0.43 0.37 0.33 0.30 0.30 0.29 0.32 0.31 0.31 0.36 0.37 0.34 0.33 0.28 0.24 0.25 0.29 0.28 0.26 0.27 0.25 0.25 0.24 0.22 0.19 0.17 0.21 0.29 0.28 0.29 0.29 0.28 0.26 0.25 0.26
0.59 0.42 0.63 0.64 0.43 0.41 0.33 0.37 0.41 0.39 0.42 0.37 0.36 0.33 0.31 0.31 0.30 0.31 0.31 0.34 0.38 0.34 0.27 0.30 0.26 0.22 0.26 0.31 0.31 0.30 0.28 0.27 0.22 0.21 0.24 0.23 0.22 0.32 0.30 0.30 0.30 0.27 0.26 0.26 0.26
0.53 0.48 0.62 0.63 0.35 0.33 0.35 0.34 0.38 0.36 0.36 0.35 0.33 0.35 0.35 0.30 0.28 0.33 0.35 0.38 0.38 0.35 0.30 0.31 0.27 0.22 0.24 0.30 0.31 0.28 0.29 0.29 0.28 0.27 0.25 0.24 0.26 0.33 0.31 0.31 0.29 0.26 0.25 0.25 0.25
0.54 0.37 0.46 0.51 0.48 0.36 0.31 0.29 0.27 0.37 0.34 0.36 0.34 0.35 0.31 0.29 0.33 0.31 0.35 0.40 0.40 0.39 0.37 0.35 0.29 0.26 0.23 0.26 0.29 0.27 0.29 0.30 0.29 0.25 0.26 0.30 0.30 0.31 0.31 0.29 0.26 0.24 0.24 0.25 0.25
0.52 0.48 0.50 0.33 0.35 0.36 0.36 0.32 0.27 0.26 0.34 0.36 0.31 0.32 0.29 0.25 0.27 0.30 0.37 0.39 0.40 0.41 0.37 0.35 0.27 0.30 0.30 0.31 0.30 0.30 0.30 0.31 0.29 0.31 0.28 0.33 0.31 0.31 0.30 0.27 0.24 0.24 0.24 0.24 0.22
0.47 0.44 0.48 0.42 0.41 0.36 0.35 0.31 0.28 0.30 0.30 0.28 0.29 0.31 0.31 0.27 0.28 0.28 0.33 0.35 0.34 0.38 0.35 0.37 0.30 0.31 0.29 0.31 0.30 0.29 0.32 0.32 0.33 0.34 0.34 0.33 0.31 0.34 0.30 0.26 0.23 0.24 0.24 0.24 0.18
0.60 0.56 0.51 0.40 0.37 0.34 0.33 0.32 0.30 0.32 0.34 0.35 0.33 0.30 0.28 0.30 0.34 0.36 0.38 0.37 0.37 0.36 0.34 0.34 0.32 0.30 0.28 0.32 0.31 0.29 0.33 0.34 0.34 0.36 0.36 0.31 0.34 0.35 0.28 0.24 0.23 0.24 0.26 0.23 0.11
Wind_Speed
11 11 11 12 12 11 11 11 11 11 11 11 11 12 12 13 12 13 14 11 10 10 10 9 9 10 10 9 9 8 10 9 7 6 6 6 7 8 10 11 11 8 8 9 11
11 11 12 12 12 11 11 11 11 11 12 12 12 12 12 12 13 15 12 11 9 9 10 11 10 8 9 9 8 8 8 8 9 9 9 9 8 7 7 10 10 9 10 11 13
11 11 11 11 11 11 12 12 12 12 11 10 10 10 9 9 10 11 11 11 10 9 7 7 7 9 9 9 8 7 7 10 11 10 9 9 10 7 5 10 10 11 12 14 16
10 10 10 10 11 11 11 11 11 9 8 8 8 7 6 6 8 9 10 10 10 9 7 7 7 6 8 9 10 12 9 8 8 7 6 6 7 9 9 8 10 12 14 16 19
10 10 10 10 10 11 10 9 8 8 7 8 8 8 8 11 10 8 9 9 9 9 9 9 9 9 8 10 11 10 8 7 6 6 6 7 8 7 8 9 11 14 16 18 21
10 10 10 10 11 11 10 9 9 9 9 9 8 7 7 11 8 8 8 9 9 9 10 11 10 12 9 7 7 7 8 7 5 4 4 6 7 10 10 11 14 16 18 20 23
11 11 11 11 11 10 10 9 9 9 8 8 8 9 10 8 7 8 8 9 9 8 9 7 5 5 7 9 10 8 6 4 3 5 7 5 9 10 11 13 14 16 19 21 24
11 12 12 12 11 10 10 9 9 8 8 8 8 8 9 8 8 8 7 8 9 8 8 6 8 7 5 8 3 5 3 4 6 6 8 11 11 11 13 14 16 18 20 23 26
12 12 13 12 12 11 11 10 9 8 7 6 6 6 7 6 6 6 6 6 6 7 6 8 8 7 5 2 3 4 9 5 8 8 11 11 13 12 14 15 17 19 22 25 28
12 13 13 13 12 13 11 10 9 7 5 5 4 8 5 5 5 4 4 4 3 3 3 3 3 3 5 7 7 10 11 9 7 10 11 14 12 13 15 16 18 20 23 27 30
13 14 14 14 13 12 11 8 5 6 9 8 6 8 5 3 5 5 5 4 3 4 3 5 4 6 9 9 9 10 10 10 9 12 15 15 13 13 15 16 19 22 25 29 32
14 14 15 13 13 11 6 4 6 8 9 8 8 7 5 3 3 7 7 4 4 4 3 5 6 7 9 8 9 9 11 10 11 12 15 13 14 12 15 17 20 24 28 31 34
15 15 14 13 11 8 7 8 7 5 5 6 6 5 4 5 5 6 6 6 6 7 7 5 6 7 9 9 11 9 11 13 16 14 14 17 16 12 15 17 21 24 28 32 36
15 15 14 12 9 10 9 7 3 2 3 5 4 5 4 3 4 7 6 5 5 6 7 6 7 8 8 8 12 11 12 15 16 13 15 13 17 14 15 20 22 25 29 34 38
15 14 13 11 10 9 7 3 0 1 2 3 5 4 6 5 3 6 6 7 8 7 6 7 8 10 9 10 11 11 14 14 15 15 16 13 17 18 16 21 23 25 31 36 40
15 14 13 11 10 7 5 2 2 1 2 2 3 3 2 6 5 4 6 6 7 7 8 7 7 8 10 11 10 14 14 13 13 14 15 13 16 17 19 21 23 28 33 38 42
15 14 13 10 8 6 3 2 3 1 2 2 2 3 4 5 5 6 6 9 8 8 7 6 8 7 11 11 9 15 17 13 13 13 14 15 18 19 20 23 25 30 34 39 42
15 14 11 9 6 5 3 3 1 1 2 1 1 2 3 6 5 6 5 6 10 11 9 9 7 10 12 11 11 14 15 13 15 16 18 15 17 19 20 23 26 31 36 40 43
14 13 11 8 6 5 4 2 2 2 2 2 1 1 3 4 5 5 7 7 9 11 9 9 7 7 10 11 12 14 14 14 16 17 17 13 19 20 21 24 28 34 38 41 43
13 12 10 8 7 6 4 4 4 3 2 2 3 3 5 7 5 7 7 8 8 10 10 9 8 8 9 10 11 13 14 15 15 18 19 22 18 20 23 26 32 37 38 41 43
13 11 9 8 7 5 4 4 6 5 4 4 4 4 6 7 8 7 8 8 10 10 9 10 7 8 10 9 12 14 14 15 16 15 17 22 22 24 25 29 33 36 38 42 42
12 11 10 10 7 5 6 6 5 6 4 4 4 6 6 8 8 8 8 9 10 11 10 9 9 10 9 11 13 14 16 16 15 16 19 21 24 23 27 30 33 36 39 40 41
12 11 12 10 8 7 7 6 5 5 3 3 3 5 5 7 7 9 9 9 10 11 10 11 9 11 10 11 13 15 14 16 17 17 19 20 25 25 28 30 34 37 38 40 41
13 11 12 11 9 9 8 7 5 3 3 2 2 3 3 5 8 8 9 9 11 11 10 10 11 10 12 14 15 17 16 15 16 18 22 23 26 26 28 31 34 36 38 40 40
13 12 12 12 10 9 7 7 6 4 2 1 1 2 4 5 6 8 10 10 11 11 11 12 11 13 16 19 18 18 18 18 16 19 22 26 30 29 30 32 34 36 38 38 40
15 13 13 11 11 11 9 9 6 4 2 2 1 2 4 5 8 9 9 10 12 12 13 12 13 15 16 15 16 19 17 18 19 22 26 29 30 28 30 32 35 36 37 38 38
17 14 13 13 13 11 10 9 8 6 3 1 1 1 3 5 7 9 10 11 13 14 12 14 16 16 16 16 20 18 18 15 18 21 24 26 26 29 31 33 34 35 36 37 37
Wind_Direction
121 117 116 117 117 116 117 115 112 108 104 100 94 93 87 80 72 74 74 76 77 73 67 79 85 81 80 75 69 82 82 70 56 80 97 82 60 52 56 55 41 24 19 359 348
125 120 117 116 115 114 114 115 112 109 106 100 99 94 87 79 81 73 68 70 73 76 72 74 72 86 77 63 66 78 76 56 66 80 84 82 60 48 38 31 25 12 3 353 345
131 126 120 117 115 115 114 113 113 111 106 100 100 96 86 80 79 71 63 67 69 73 82 79 74 83 71 63 60 61 82 78 72 77 77 70 40 10 20 5 356 353 347 342 338
138 134 128 122 119 118 115 112 115 112 106 101 102 95 80 84 89 69 64 64 66 70 77 87 80 72 65 78 78 93 84 87 83 79 55 27 18 17 14 356 348 344 339 334 332
145 142 136 129 125 122 117 113 112 111 106 100 101 96 89 92 85 69 66 66 69 69 70 71 92 79 82 86 76 77 86 73 66 53 37 24 10 6 356 344 338 335 333 330 328
151 148 143 137 132 126 118 111 108 108 106 101 96 92 101 89 79 71 68 68 66 71 67 70 79 86 80 49 53 88 83 81 66 38 15 4 346 335 335 330 330 331 330 330 329
152 150 146 141 136 128 119 111 110 108 106 104 96 95 87 92 81 70 70 67 63 71 74 70 73 49 79 69 91 94 67 50 12 344 338 351 345 339 328 326 329 330 330 329 329
153 150 147 144 139 130 121 112 111 104 105 103 93 95 93 92 78 69 72 72 66 70 71 68 67 65 50 98 84 21 357 345 331 332 325 328 332 327 321 324 326 328 330 329 329
153 150 147 144 140 133 123 110 107 101 102 101 94 108 92 85 76 64 70 64 62 66 67 61 62 68 87 36 333 324 332 343 328 313 325 314 327 322 320 321 325 328 329 330 329
155 152 149 146 142 135 124 111 99 85 103 99 83 110 86 70 67 58 52 37 41 40 42 20 26 27 341 335 342 331 329 336 336 330 316 311 328 322 319 320 324 327 329 329 329
156 155 151 147 143 139 127 115 101 84 71 83 78 97 86 50 55 35 26 17 9 2 19 343 14 359 343 334 323 314 325 329 331 327 324 318 319 320 319 318 321 327 328 329 330
155 154 152 151 150 148 138 117 108 105 81 73 82 81 68 26 27 25 10 8 3 27 358 9 6 346 326 332 321 322 325 335 329 327 323 316 315 321 319 320 328 327 328 329 330
155 155 155 153 152 154 138 127 118 93 86 63 63 56 46 42 46 17 13 5 16 31 18 8 340 332 333 348 337 324 331 332 325 324 319 322 317 322 321 325 326 326 327 331 332
160 158 157 156 155 151 138 134 117 78 108 45 36 39 31 42 43 21 16 7 3 6 4 4 343 331 324 343 338 325 334 324 323 328 328 327 327 325 322 324 326 326 332 334 335
163 162 161 161 156 156 156 151 147 147 162 29 46 44 47 56 19 19 10 15 16 1 340 346 349 342 347 337 334 331 329 325 328 322 322 321 328 338 331 324 324 333 336 335 334
166 165 164 162 164 165 175 218 198 200 88 83 49 35 63 41 23 5 6 9 357 359 12 356 340 346 338 330 327 326 323 311 322 328 326 340 329 327 330 328 336 335 335 334 334
167 166 165 166 170 179 192 209 205 298 190 103 48 29 46 11 8 0 15 12 355 342 345 341 350 345 343 331 331 339 339 343 333 334 330 332 324 336 336 338 335 333 333 334 336
170 171 171 172 178 183 184 179 172 133 75 131 80 44 22 353 5 357 335 354 1 343 332 336 330 343 344 350 338 339 347 348 332 334 325 334 330 332 336 336 333 334 335 336 337
171 173 177 180 179 177 181 178 143 99 111 122 101 335 40 20 355 343 5 355 353 354 352 346 346 340 348 344 344 342 348 339 330 322 329 335 339 336 334 331 333 337 337 337 338
173 175 177 180 175 169 175 140 136 120 109 87 45 32 40 19 1 360 5 353 355 357 345 348 331 340 343 336 341 344 339 339 337 336 332 330 337 331 328 333 337 336 338 338 339
174 176 175 172 166 171 152 135 134 120 97 70 68 73 45 29 16 22 16 6 0 350 342 345 336 337 337 336 343 339 337 337 336 334 332 332 332 337 338 336 334 337 339 339 340
181 182 179 173 167 156 143 138 142 133 111 91 69 50 39 23 26 23 17 10 359 350 349 348 338 330 344 338 337 336 336 335 334 337 329 327 330 337 334 333 337 339 339 340 341
186 183 182 178 175 161 156 144 133 143 110 86 78 41 29 29 22 17 18 8 2 357 353 346 339 336 335 338 336 329 332 333 332 332 326 333 332 331 332 336 339 339 340 341 341
192 187 189 190 187 171 167 162 152 146 130 92 89 35 31 25 15 17 13 7 3 359 350 342 334 328 328 332 331 326 328 326 326 329 330 326 333 330 333 336 336 339 341 341 342
197 195 196 196 197 186 185 178 170 168 157 172 55 349 4 16 10 12 11 6 360 357 347 344 330 335 321 319 321 321 320 319 315 317 326 329 331 336 337 337 339 341 341 342 343
200 200 199 200 194 186 198 198 189 188 197 192 317 28 355 1 2 4 359 356 2 353 347 347 336 333 327 334 327 322 318 318 318 321 319 321 329 338 338 339 340 341 342 343 344
204 205 205 207 202 205 206 202 201 186 222 254 310 338 350 350 355 357 356 354 354 352 347 347 344 340 328 331 326 325 330 320 327 327 328 330 336 337 338 339 340 342 343 344 345